Theta_e
329 330 331 332 333 335 337 340 342 344 344 345 349 348 349 349 349 346 346 343 345 346 342 340 342 343 340 339 340 341 339 336 333
327 330 326 328 333 335 337 340 342 345 345 348 351 350 351 351 349 348 345 344 339 346 341 344 342 343 341 339 341 340 335 333 329
326 326 326 326 328 334 337 341 344 347 347 348 352 354 353 353 352 350 349 339 332 342 343 344 341 342 342 342 340 337 333 329 325
324 326 327 327 326 331 337 340 346 348 349 349 350 355 354 354 354 351 349 339 339 344 343 342 342 343 342 338 333 331 329 323 320
322 324 327 330 329 330 336 340 346 350 352 353 352 352 354 354 354 351 348 343 345 344 343 344 344 341 339 334 330 328 325 320 319
323 330 325 323 324 329 336 342 346 350 352 353 353 353 354 354 353 348 344 348 347 347 346 346 342 337 334 331 328 324 320 318 317
323 328 327 324 322 329 337 344 347 349 351 353 353 353 353 353 353 346 348 349 346 345 340 340 335 333 331 329 323 320 319 318 316
321 322 325 323 324 334 338 343 347 350 351 352 352 353 352 350 347 347 348 346 343 344 337 338 336 333 328 323 322 321 319 318 316
320 322 326 325 335 341 340 345 347 349 350 349 351 350 350 349 344 344 344 342 335 336 339 337 333 326 318 317 321 328 328 320 315
324 338 341 344 344 343 345 347 348 348 350 350 349 350 350 345 341 341 336 333 335 338 336 331 320 313 312 315 317 327 327 324 313
331 340 341 344 346 348 349 349 351 352 352 350 350 350 346 342 338 335 332 332 332 335 331 322 316 311 311 311 316 325 326 325 315
338 339 342 346 348 351 351 353 355 353 351 350 350 347 344 340 337 335 334 333 333 329 325 321 317 312 310 309 310 319 321 316 311
336 339 342 347 350 352 352 355 355 352 350 349 347 345 343 340 338 336 335 333 329 326 324 321 317 312 309 311 307 316 315 314 313
338 338 341 349 352 351 352 354 354 350 350 348 347 345 342 340 338 335 333 331 329 326 322 319 314 310 308 307 306 309 313 315 308
338 337 340 348 347 349 351 350 348 344 344 347 347 344 341 338 335 335 334 331 328 324 320 316 311 308 307 307 307 310 311 312 310
338 337 340 344 346 347 346 346 346 343 343 345 342 341 339 337 335 335 334 331 326 322 319 316 311 309 308 307 308 307 310 310 310
336 337 339 343 345 344 341 341 343 344 343 343 341 340 338 336 335 334 335 330 325 321 319 316 313 310 309 310 309 309 306 307 305
336 339 341 344 343 340 339 343 341 341 344 344 341 340 338 336 334 333 330 326 324 322 321 320 315 312 313 311 310 311 309 305 305
328 329 338 338 338 340 341 338 341 342 346 343 341 338 336 334 333 328 323 318 315 305 308 306 308 308 311 313 310 306 304 302 302
328 330 337 338 338 339 331 330 335 342 344 343 341 337 334 332 330 324 317 318 317 308 303 302 303 304 305 304 305 302 300 299 299
Wind_Speed
8 2 7 10 10 14 16 19 18 16 15 13 12 11 10 8 8 5 6 7 4 4 5 4 4 5 5 4 3 4 5 4 4
12 14 8 8 14 15 15 19 20 19 16 14 14 14 9 9 7 7 7 7 5 6 6 5 6 6 5 6 5 6 6 4 5
12 13 28 26 17 6 11 16 18 17 17 18 16 14 11 9 8 7 6 6 7 7 7 6 7 6 6 6 6 6 6 5 5
16 18 13 16 10 7 7 13 16 18 16 15 14 13 12 10 9 7 7 7 7 6 8 7 7 7 8 7 7 6 7 6 6
6 6 4 10 12 13 11 14 15 17 15 15 14 14 12 11 8 7 7 6 4 6 5 6 8 8 8 8 7 6 7 6 6
4 3 9 4 6 10 14 15 14 15 14 14 12 11 12 10 8 7 9 11 5 3 3 7 12 9 7 6 7 7 6 7 7
13 17 10 8 9 9 12 12 14 13 12 12 12 11 10 10 8 9 12 9 8 10 12 13 11 10 6 6 7 6 6 7 6
12 10 7 7 7 8 13 12 13 11 11 11 11 10 7 7 12 15 13 10 11 10 8 9 12 10 6 6 6 4 7 6 7
8 15 12 9 11 10 13 14 15 13 11 10 10 8 9 9 12 13 13 11 10 9 9 8 8 9 8 6 4 10 11 9 6
4 7 7 9 12 15 14 15 15 14 13 10 10 10 10 11 13 15 14 13 9 12 11 8 7 7 7 6 5 9 12 12 6
8 6 8 9 10 9 10 11 11 11 12 13 12 11 10 11 14 14 12 11 10 9 8 9 8 7 7 7 4 9 10 10 5
6 5 6 10 11 12 10 12 12 14 12 12 13 12 11 11 14 15 12 10 10 8 9 8 7 7 8 8 4 8 9 7 4
8 8 4 4 8 8 10 10 12 13 12 13 13 13 13 12 13 15 12 11 10 6 8 6 6 6 6 10 7 6 8 5 3
6 4 8 2 7 11 10 10 11 11 12 12 12 11 12 12 10 13 13 11 8 8 8 8 6 7 5 5 6 6 7 7 3
6 7 8 4 2 5 7 11 12 10 11 12 14 15 14 11 11 9 10 12 8 8 9 9 6 7 5 4 5 7 8 8 6
8 5 4 5 7 12 9 9 14 14 11 13 14 15 14 14 11 10 10 11 10 8 8 8 6 5 5 5 5 4 8 8 7
6 5 4 7 10 9 9 7 10 12 13 13 15 14 14 13 12 11 10 8 7 7 7 6 6 5 4 4 4 4 4 4 4
7 7 4 8 11 10 10 9 10 7 10 11 13 13 13 11 10 11 10 7 6 8 7 9 9 7 6 5 5 6 7 7 5
2 5 4 2 3 8 12 10 11 11 14 10 14 13 11 10 9 8 7 8 4 8 5 6 10 10 8 5 8 9 12 12 10
3 4 5 5 8 8 7 9 8 10 12 12 13 10 11 10 9 9 8 7 8 6 5 7 3 12 15 13 11 13 10 10 9
Wind_Direction
104 103 142 189 194 211 199 189 188 182 180 182 180 183 185 181 178 176 178 181 156 175 156 167 163 156 152 156 124 109 96 86 82
171 195 46 248 215 218 204 190 190 182 179 182 182 188 175 190 178 173 179 186 154 166 157 153 160 163 155 111 90 94 98 93 91
184 183 184 215 231 265 193 190 187 182 178 180 182 183 181 183 188 174 171 135 158 166 164 163 149 143 129 104 100 106 90 79 74
186 209 189 214 218 238 226 190 179 176 176 176 181 178 178 175 184 166 152 150 152 176 155 153 134 128 121 113 106 97 93 94 86
280 13 15 246 244 243 197 179 175 173 171 172 185 183 172 176 168 151 142 116 147 117 132 121 129 133 120 112 99 99 106 98 98
164 213 201 196 255 239 181 172 169 168 168 172 178 175 174 157 158 147 98 97 68 121 79 154 122 91 87 96 109 110 106 107 107
192 199 171 204 212 211 175 168 161 163 164 171 172 172 172 156 138 103 109 163 116 111 105 77 63 91 109 123 105 108 113 109 110
191 237 228 179 222 188 168 155 155 162 166 166 167 165 148 118 115 132 144 171 148 144 120 124 125 135 141 116 114 123 124 118 124
231 251 246 244 171 161 163 158 159 160 161 159 155 145 134 124 125 133 151 151 136 126 143 137 128 136 124 108 113 135 129 129 124
204 166 152 155 165 162 163 163 161 164 160 146 146 140 143 124 127 136 141 143 146 144 143 127 123 116 116 114 114 144 135 134 130
354 160 150 153 151 148 153 154 152 141 147 149 144 140 136 125 127 130 138 137 140 133 135 136 126 118 122 126 113 122 137 135 139
10 326 201 171 166 155 148 152 145 141 142 140 136 139 135 126 131 134 142 139 140 137 133 130 135 137 137 122 96 103 114 118 128
348 8 347 214 156 142 143 142 137 138 143 139 142 140 142 140 141 138 142 144 146 137 133 120 125 128 135 143 136 110 107 128 177
314 314 320 234 176 166 146 139 139 139 144 151 144 134 135 136 141 138 141 138 138 134 129 122 117 115 125 135 149 151 157 159 140
260 296 316 154 157 114 147 151 136 142 149 154 137 137 135 134 134 140 138 140 134 130 131 127 134 132 141 170 192 189 195 186 165
256 261 253 167 177 160 172 158 156 154 160 146 136 131 142 139 135 135 142 142 136 136 139 145 145 154 158 182 202 209 211 203 198
256 275 286 166 161 175 168 169 161 153 148 145 132 141 136 135 141 141 145 135 140 143 145 138 153 160 176 191 198 208 206 206 222
6 342 10 171 166 173 168 162 117 120 131 128 129 135 141 148 142 147 143 132 156 158 170 167 171 183 171 174 209 221 187 179 203
118 42 25 269 190 186 160 139 115 125 122 168 150 155 153 145 146 142 146 137 123 56 87 222 178 161 168 211 238 172 182 195 206
216 96 81 226 186 196 102 94 125 150 124 171 160 160 146 143 155 151 147 154 153 152 59 70 167 194 198 186 188 188 180 172 153